TimeCST,TemperatureF,Dew PointF,Humidity,Sea Level PressureIn,VisibilityMPH,Wind Direction,Wind SpeedMPH,Gust SpeedMPH,PrecipitationIn,Events,Conditions,WindDirDegrees,DateUTC
12:15 AM,37.4,32.0,81,30.19,10.0,Calm,Calm,-,N/A,,Overcast,0,2012-11-04 05:15:00
12:35 AM,39.2,33.8,81,30.20,10.0,Calm,Calm,-,N/A,,Overcast,0,2012-11-04 05:35:00
12:55 AM,39.2,33.8,81,30.19,10.0,Calm,Calm,-,N/A,,Overcast,0,2012-11-04 05:55:00
1:15 AM,39.2,33.8,81,30.19,10.0,Calm,Calm,-,N/A,,Mostly Cloudy,0,2012-11-04 06:15:00
1:35 AM,39.2,33.8,81,30.19,10.0,Calm,Calm,-,N/A,,Scattered Clouds,0,2012-11-04 06:35:00
1:55 AM,39.2,33.8,81,30.19,10.0,Calm,Calm,-,N/A,,Clear,0,2012-11-04 06:55:00
1:15 AM,37.4,32.0,81,30.19,10.0,Calm,Calm,-,N/A,,Clear,0,2012-11-04 07:15:00
1:35 AM,37.4,32.0,81,30.19,10.0,Calm,Calm,-,N/A,,Clear,0,2012-11-04 07:35:00
1:55 AM,35.6,30.2,81,30.19,10.0,Calm,Calm,-,N/A,,Clear,0,2012-11-04 07:55:00
2:15 AM,35.6,32.0,87,30.19,10.0,Calm,Calm,-,N/A,,Clear,0,2012-11-04 08:15:00
2:35 AM,37.4,32.0,81,30.20,4.0,Calm,Calm,-,N/A,,Haze,0,2012-11-04 08:35:00
2:55 AM,37.4,32.0,81,30.20,7.0,Calm,Calm,-,N/A,,Mostly Cloudy,0,2012-11-04 08:55:00
3:15 AM,37.4,33.8,87,30.19,10.0,Calm,Calm,-,N/A,,Mostly Cloudy,0,2012-11-04 09:15:00
3:35 AM,39.2,33.8,81,30.19,10.0,Calm,Calm,-,N/A,,Overcast,0,2012-11-04 09:35:00
3:55 AM,39.2,33.8,81,30.19,10.0,Calm,Calm,-,N/A,,Overcast,0,2012-11-04 09:55:00
4:15 AM,39.2,33.8,81,30.19,10.0,Calm,Calm,-,N/A,,Overcast,0,2012-11-04 10:15:00
4:35 AM,39.2,35.6,87,30.18,10.0,Calm,Calm,-,N/A,,Mostly Cloudy,0,2012-11-04 10:35:00
4:55 AM,39.2,35.6,87,30.19,10.0,Calm,Calm,-,N/A,,Mostly Cloudy,0,2012-11-04 10:55:00
5:15 AM,39.2,35.6,87,30.19,10.0,Calm,Calm,-,N/A,,Mostly Cloudy,0,2012-11-04 11:15:00
5:35 AM,39.2,35.6,87,30.19,10.0,Calm,Calm,-,N/A,,Mostly Cloudy,0,2012-11-04 11:35:00
5:55 AM,39.2,35.6,87,30.19,10.0,Calm,Calm,-,N/A,,Overcast,0,2012-11-04 11:55:00
6:15 AM,39.2,35.6,87,30.19,7.0,Calm,Calm,-,N/A,,Scattered Clouds,0,2012-11-04 12:15:00
6:35 AM,39.2,35.6,87,30.19,10.0,Calm,Calm,-,N/A,,Clear,0,2012-11-04 12:35:00
6:55 AM,39.2,35.6,87,30.18,10.0,Calm,Calm,-,N/A,,Scattered Clouds,0,2012-11-04 12:55:00
7:15 AM,39.2,35.6,87,30.19,10.0,Calm,Calm,-,N/A,,Mostly Cloudy,0,2012-11-04 13:15:00
7:35 AM,39.2,35.6,87,30.20,7.0,Calm,Calm,-,N/A,,Mostly Cloudy,0,2012-11-04 13:35:00
7:55 AM,41.0,35.6,81,30.19,7.0,Calm,Calm,-,N/A,,Scattered Clouds,0,2012-11-04 13:55:00
8:15 AM,42.8,35.6,76,30.19,7.0,Calm,Calm,-,N/A,,Mostly Cloudy,0,2012-11-04 14:15:00
8:35 AM,42.8,37.4,81,30.18,10.0,Calm,Calm,-,N/A,,Mostly Cloudy,0,2012-11-04 14:35:00
8:55 AM,46.4,37.4,71,30.18,10.0,South,3.5,-,N/A,,Scattered Clouds,170,2012-11-04 14:55:00
9:15 AM,46.4,37.4,71,30.18,10.0,Calm,Calm,-,N/A,,Scattered Clouds,0,2012-11-04 15:15:00
9:35 AM,48.2,37.4,66,30.17,10.0,Calm,Calm,-,N/A,,Scattered Clouds,0,2012-11-04 15:35:00
9:55 AM,51.8,37.4,58,30.17,10.0,Calm,Calm,-,N/A,,Scattered Clouds,0,2012-11-04 15:55:00
10:15 AM,53.6,37.4,54,30.16,10.0,SSE,6.9,-,N/A,,Scattered Clouds,160,2012-11-04 16:15:00
10:35 AM,53.6,35.6,51,30.16,10.0,South,6.9,-,N/A,,Scattered Clouds,170,2012-11-04 16:35:00
10:55 AM,55.4,35.6,47,30.15,10.0,South,8.1,-,N/A,,Scattered Clouds,170,2012-11-04 16:55:00
11:15 AM,57.2,37.4,48,30.13,10.0,South,9.2,-,N/A,,Scattered Clouds,170,2012-11-04 17:15:00
11:35 AM,57.2,35.6,44,30.13,10.0,South,9.2,-,N/A,,Scattered Clouds,170,2012-11-04 17:35:00
11:55 AM,57.2,37.4,48,30.11,10.0,South,11.5,-,N/A,,Scattered Clouds,180,2012-11-04 17:55:00
12:15 PM,59.0,35.6,42,30.10,10.0,South,11.5,-,N/A,,Clear,180,2012-11-04 18:15:00
12:35 PM,59.0,35.6,42,30.08,10.0,SSE,11.5,-,N/A,,Clear,160,2012-11-04 18:35:00
12:55 PM,60.8,35.6,39,30.07,10.0,SSE,10.4,-,N/A,,Clear,160,2012-11-04 18:55:00
1:15 PM,60.8,35.6,39,30.05,10.0,SE,10.4,-,N/A,,Clear,140,2012-11-04 19:15:00
1:35 PM,60.8,35.6,39,30.04,10.0,SE,12.7,-,N/A,,Clear,140,2012-11-04 19:35:00
1:55 PM,60.8,35.6,39,30.04,10.0,SSE,12.7,-,N/A,,Clear,160,2012-11-04 19:55:00
2:15 PM,59.0,35.6,42,30.04,10.0,SSE,11.5,-,N/A,,Clear,160,2012-11-04 20:15:00
2:35 PM,60.8,35.6,39,30.03,10.0,South,9.2,-,N/A,,Clear,170,2012-11-04 20:35:00
2:55 PM,59.0,35.6,42,30.04,10.0,South,8.1,-,N/A,,Clear,170,2012-11-04 20:55:00
3:15 PM,59.0,37.4,45,30.03,10.0,SSE,8.1,-,N/A,,Clear,160,2012-11-04 21:15:00
3:35 PM,59.0,37.4,45,30.03,10.0,SSE,8.1,-,N/A,,Clear,150,2012-11-04 21:35:00
3:55 PM,59.0,37.4,45,30.02,10.0,SSE,6.9,-,N/A,,Scattered Clouds,150,2012-11-04 21:55:00
4:15 PM,59.0,37.4,45,30.02,10.0,SSE,8.1,-,N/A,,Scattered Clouds,150,2012-11-04 22:15:00
4:35 PM,57.2,39.2,51,30.02,10.0,SSE,9.2,-,N/A,Rain,Rain,160,2012-11-04 22:35:00
4:55 PM,57.2,39.2,51,30.02,10.0,South,8.1,-,N/A,,Light Drizzle,170,2012-11-04 22:55:00
5:15 PM,55.4,41.0,58,30.02,10.0,South,13.8,-,N/A,,Drizzle,170,2012-11-04 23:15:00
5:35 PM,53.6,42.8,67,30.02,10.0,South,15.0,-,N/A,,Drizzle,190,2012-11-04 23:35:00
5:55 PM,53.6,44.6,72,30.02,10.0,South,16.1,-,N/A,,Light Drizzle,170,2012-11-04 23:55:00
6:15 PM,53.6,44.6,72,30.03,10.0,South,12.7,-,N/A,,Light Drizzle,170,2012-11-05 00:15:00
6:35 PM,53.6,42.8,67,30.03,10.0,SSE,15.0,-,N/A,,Mostly Cloudy,160,2012-11-05 00:35:00
7:15 PM,53.6,42.8,67,30.03,10.0,SSE,16.1,19.6,N/A,,Light Drizzle,160,2012-11-05 01:15:00
7:16 PM,53.6,42.8,67,30.03,10.0,South,15.0,19.6,N/A,,Light Drizzle,170,2012-11-05 01:16:00
7:35 PM,53.6,42.8,67,30.03,10.0,South,9.2,-,N/A,,Light Drizzle,170,2012-11-05 01:35:00
7:55 PM,53.6,42.8,67,30.03,10.0,West,9.2,-,N/A,Rain,Light Rain,280,2012-11-05 01:55:00
8:15 PM,51.8,44.6,76,30.04,10.0,Calm,Calm,-,N/A,Rain,Rain,0,2012-11-05 02:15:00
8:35 PM,51.8,44.6,76,30.04,7.0,Calm,Calm,-,N/A,Rain,Rain,0,2012-11-05 02:35:00
8:55 PM,51.8,44.6,76,30.04,10.0,Calm,Calm,-,0.01,Rain,Light Rain,0,2012-11-05 02:55:00
9:15 PM,51.8,44.6,76,30.04,10.0,SSW,3.5,-,0.01,,Drizzle,210,2012-11-05 03:15:00
9:35 PM,50.0,44.6,82,30.03,7.0,South,6.9,-,0.02,Rain,Rain,190,2012-11-05 03:35:00
9:55 PM,50.0,44.6,82,30.03,7.0,SSE,5.8,-,0.02,,Drizzle,150,2012-11-05 03:55:00
10:15 PM,50.0,44.6,82,30.02,7.0,SSE,5.8,-,N/A,,Drizzle,160,2012-11-05 04:15:00
10:35 PM,50.0,44.6,82,30.01,7.0,South,3.5,-,0.01,,Drizzle,170,2012-11-05 04:35:00
10:55 PM,50.0,44.6,82,30.01,7.0,Calm,Calm,-,0.01,,Light Drizzle,0,2012-11-05 04:55:00